Tracking 19644 objects as of 25-Apr-2019
HD Live streaming from Space Station
objects crossing your sky now

THORAD AGENA D DEB

Track THORAD AGENA D DEB now!
10-day predictions


NORAD ID: 4611
Int'l Code: 1970-025P
Perigee: 803.4 km
Apogee: 990.1 km
Inclination: 99.8 °
Period: 102.8 minutes
Semi major axis: 7267 km
RCS: 0.4297 m2 (medium)
Launch date: April 8, 1970
Source: United States (US)
Launch site: AIR FORCE WESTERN TEST RANGE (AFWTR)

Note: This is SATELLITE DEBRIS
aabbcc
Your satellite tracking list
Your tracking list is empty




NASA's NSSDC Master Catalog

Two Line Element Set (TLE):
1  4611U 70025P   19115.19422661  .00000292  00000-0  21269-3 0  9990
2  4611  99.8108 237.7847 0128424 305.3864  53.5355 14.01210042490405
Source of the keplerian elements: AFSPC